owner,sensor,date,latitude,longitude,vertical_datum,wind_speed,wind_to_direction,wind_speed_of_gust,qcFlag 
COMPS,ioos:station:USF.COMPS:C10:1,2017-05-01T00:05:00Z,27.1690,-82.9260,3.0,5.17,203.92,6.32,'1111122,1111122,1111122' 
COMPS,ioos:station:USF.COMPS:C10:1,2017-05-01T00:35:00Z,27.1690,-82.9260,3.0,5.0,199.32,6.06,'1111122,1111122,1111122' 
COMPS,ioos:station:USF.COMPS:C10:1,2017-05-01T01:05:00Z,27.1690,-82.9260,3.0,5.4,187.85,6.78,'1111122,1111122,1111122' 
COMPS,ioos:station:USF.COMPS:C10:1,2017-05-01T01:35:00Z,27.1690,-82.9260,3.0,6.14,178.01,7.41,'1111122,1111122,1111122' 
COMPS,ioos:station:USF.COMPS:C10:1,2017-05-01T02:05:00Z,27.1690,-82.9260,3.0,5.41,174.81,6.52,'1111122,1111122,1111122' 
COMPS,ioos:station:USF.COMPS:C10:1,2017-05-01T02:35:00Z,27.1690,-82.9260,3.0,5.5,160.3,6.61,'1111122,1111122,1111122' 
COMPS,ioos:station:USF.COMPS:C10:1,2017-05-01T03:05:00Z,27.1690,-82.9260,3.0,5.78,140.73,7.03,'1111122,1111122,1111122' 
COMPS,ioos:station:USF.COMPS:C10:1,2017-05-01T03:35:00Z,27.1690,-82.9260,3.0,5.84,138.03,7.07,'1111122,1111122,1111122' 
COMPS,ioos:station:USF.COMPS:C10:1,2017-05-01T04:05:00Z,27.1690,-82.9260,3.0,6.44,137.8,8.33,'1111122,1111122,1111122' 
COMPS,ioos:station:USF.COMPS:C10:1,2017-05-01T04:35:00Z,27.1690,-82.9260,3.0,9.31,130.08,11.43,'1111122,1111122,1111122' 
COMPS,ioos:station:USF.COMPS:C10:1,2017-05-01T05:05:00Z,27.1690,-82.9260,3.0,9.49,138.05,11.68,'1111122,1111122,1111122' 
COMPS,ioos:station:USF.COMPS:C10:1,2017-05-01T05:35:00Z,27.1690,-82.9260,3.0,8.03,139.89,9.67,'1111122,1111122,1111122' 
COMPS,ioos:station:USF.COMPS:C10:1,2017-05-01T06:05:00Z,27.1690,-82.9260,3.0,8.09,141.67,10.2,'1111122,1111122,1111122' 
COMPS,ioos:station:USF.COMPS:C10:1,2017-05-01T06:35:00Z,27.1690,-82.9260,3.0,7.99,140.94,10.37,'1111122,1111122,1111122' 
COMPS,ioos:station:USF.COMPS:C10:1,2017-05-01T07:05:00Z,27.1690,-82.9260,3.0,8.91,142.25,11.56,'1111122,1111122,1111122' 
COMPS,ioos:station:USF.COMPS:C10:1,2017-05-01T07:35:00Z,27.1690,-82.9260,3.0,8.69,141.77,10.65,'1111122,1111122,1111122' 
COMPS,ioos:station:USF.COMPS:C10:1,2017-05-01T08:05:00Z,27.1690,-82.9260,3.0,8.93,141.43,11.52,'1111122,1111122,1111122' 
COMPS,ioos:station:USF.COMPS:C10:1,2017-05-01T08:35:00Z,27.1690,-82.9260,3.0,8.74,141.56,10.66,'1111122,1111122,1111122' 
COMPS,ioos:station:USF.COMPS:C10:1,2017-05-01T09:05:00Z,27.1690,-82.9260,3.0,9.11,147.0,11.42,'1111122,1111122,1111122' 
COMPS,ioos:station:USF.COMPS:C10:1,2017-05-01T09:35:00Z,27.1690,-82.9260,3.0,8.96,142.07,11.13,'1111122,1111122,1111122' 
COMPS,ioos:station:USF.COMPS:C10:1,2017-05-01T10:05:00Z,27.1690,-82.9260,3.0,7.84,143.28,9.69,'1111122,1111122,1111122' 
COMPS,ioos:station:USF.COMPS:C10:1,2017-05-01T10:35:00Z,27.1690,-82.9260,3.0,8.31,141.9,9.94,'1111122,1111122,1111122' 
COMPS,ioos:station:USF.COMPS:C10:1,2017-05-01T11:05:00Z,27.1690,-82.9260,3.0,8.49,144.05,10.1,'1111122,1111122,1111122' 
COMPS,ioos:station:USF.COMPS:C10:1,2017-05-01T11:35:00Z,27.1690,-82.9260,3.0,8.65,146.06,10.29,'1111122,1111122,1111122' 
COMPS,ioos:station:USF.COMPS:C10:1,2017-05-01T12:05:00Z,27.1690,-82.9260,3.0,7.77,144.41,9.77,'1111122,1111122,1111122' 
COMPS,ioos:station:USF.COMPS:C10:1,2017-05-01T12:35:00Z,27.1690,-82.9260,3.0,6.55,144.02,7.82,'1111122,1111122,1111122' 
COMPS,ioos:station:USF.COMPS:C10:1,2017-05-01T13:05:00Z,27.1690,-82.9260,3.0,6.75,145.44,8.59,'1111122,1111122,1111122' 
COMPS,ioos:station:USF.COMPS:C10:1,2017-05-01T13:35:00Z,27.1690,-82.9260,3.0,5.31,145.79,6.67,'1111122,1111122,1111122' 
COMPS,ioos:station:USF.COMPS:C10:1,2017-05-01T14:05:00Z,27.1690,-82.9260,3.0,4.99,146.17,6.17,'1111122,1111122,1111122' 
COMPS,ioos:station:USF.COMPS:C10:1,2017-05-01T14:35:00Z,27.1690,-82.9260,3.0,5.57,147.34,7.04,'1111122,1111122,1111122' 
COMPS,ioos:station:USF.COMPS:C10:1,2017-05-01T15:05:00Z,27.1690,-82.9260,3.0,5.57,152.59,6.9,'1111122,1111122,1111122' 
COMPS,ioos:station:USF.COMPS:C10:1,2017-05-01T15:35:00Z,27.1690,-82.9260,3.0,4.43,164.35,5.26,'1111122,1111122,1111122' 
COMPS,ioos:station:USF.COMPS:C10:1,2017-05-01T16:05:00Z,27.1690,-82.9260,3.0,4.09,155.77,5.06,'1111122,1111122,1111122' 
COMPS,ioos:station:USF.COMPS:C10:1,2017-05-01T16:35:00Z,27.1690,-82.9260,3.0,4.39,151.38,5.44,'1111122,1111122,1111122' 
COMPS,ioos:station:USF.COMPS:C10:1,2017-05-01T17:05:00Z,27.1690,-82.9260,3.0,4.83,148.49,5.81,'1111122,1111122,1111122' 
COMPS,ioos:station:USF.COMPS:C10:1,2017-05-01T17:35:00Z,27.1690,-82.9260,3.0,4.82,156.86,5.74,'1111122,1111122,1111122' 
COMPS,ioos:station:USF.COMPS:C10:1,2017-05-01T18:05:00Z,27.1690,-82.9260,3.0,4.9,167.62,5.81,'1111122,1111122,1111122' 
COMPS,ioos:station:USF.COMPS:C10:1,2017-05-01T18:35:00Z,27.1690,-82.9260,3.0,5.06,175.41,6.15,'1111122,1111122,1111122' 
COMPS,ioos:station:USF.COMPS:C10:1,2017-05-01T19:05:00Z,27.1690,-82.9260,3.0,5.29,179.3,6.33,'1111122,1111122,1111122' 
COMPS,ioos:station:USF.COMPS:C10:1,2017-05-01T19:35:00Z,27.1690,-82.9260,3.0,9.24,232.55,11.17,'1111122,1111122,1111122' 
COMPS,ioos:station:USF.COMPS:C10:1,2017-05-01T20:05:00Z,27.1690,-82.9260,3.0,6.72,207.94,9.48,'1111122,1111122,1111122' 
COMPS,ioos:station:USF.COMPS:C10:1,2017-05-01T20:35:00Z,27.1690,-82.9260,3.0,6.99,211.55,8.81,'1111122,1111122,1111122' 
COMPS,ioos:station:USF.COMPS:C10:1,2017-05-01T21:05:00Z,27.1690,-82.9260,3.0,6.28,219.12,7.42,'1111122,1111122,1111122' 
COMPS,ioos:station:USF.COMPS:C10:1,2017-05-01T21:35:00Z,27.1690,-82.9260,3.0,6.76,226.27,8.3,'1111122,1111122,1111122' 
COMPS,ioos:station:USF.COMPS:C10:1,2017-05-01T22:05:00Z,27.1690,-82.9260,3.0,3.53,237.35,6.35,'1111122,1111122,1111122' 
COMPS,ioos:station:USF.COMPS:C10:1,2017-05-01T22:35:00Z,27.1690,-82.9260,3.0,5.62,177.61,6.71,'1111122,1111122,1111122' 
COMPS,ioos:station:USF.COMPS:C10:1,2017-05-01T23:05:00Z,27.1690,-82.9260,3.0,6.4,179.43,7.71,'1111122,1111122,1111122' 
COMPS,ioos:station:USF.COMPS:C10:1,2017-05-01T23:35:00Z,27.1690,-82.9260,3.0,5.67,165.2,7.12,'1111122,1111122,1111122' 
COMPS,ioos:station:USF.COMPS:C10:1,2017-05-02T00:05:00Z,27.1690,-82.9260,3.0,5.35,166.86,6.38,'1111122,1111122,1111122' 
COMPS,ioos:station:USF.COMPS:C10:1,2017-05-02T00:35:00Z,27.1690,-82.9260,3.0,5.75,166.41,6.85,'1111122,1111122,1111122' 
COMPS,ioos:station:USF.COMPS:C10:1,2017-05-02T01:05:00Z,27.1690,-82.9260,3.0,5.42,162.52,6.86,'1111122,1111122,1111122' 
COMPS,ioos:station:USF.COMPS:C10:1,2017-05-02T01:35:00Z,27.1690,-82.9260,3.0,3.88,178.33,4.94,'1111122,1111122,1111122' 
COMPS,ioos:station:USF.COMPS:C10:1,2017-05-02T02:05:00Z,27.1690,-82.9260,3.0,3.45,196.34,4.23,'1111122,1111122,1111122' 
COMPS,ioos:station:USF.COMPS:C10:1,2017-05-02T02:35:00Z,27.1690,-82.9260,3.0,2.84,195.23,3.57,'1111122,1111122,1111122' 
COMPS,ioos:station:USF.COMPS:C10:1,2017-05-02T03:05:00Z,27.1690,-82.9260,3.0,2.58,174.93,3.21,'1111122,1111122,1111122' 
COMPS,ioos:station:USF.COMPS:C10:1,2017-05-02T03:35:00Z,27.1690,-82.9260,3.0,2.99,164.54,4.01,'1111122,1111122,1111122' 
COMPS,ioos:station:USF.COMPS:C10:1,2017-05-02T04:05:00Z,27.1690,-82.9260,3.0,3.35,170.85,4.11,'1111122,1111122,1111122' 
COMPS,ioos:station:USF.COMPS:C10:1,2017-05-02T04:35:00Z,27.1690,-82.9260,3.0,4.58,174.77,5.46,'1111122,1111122,1111122' 
COMPS,ioos:station:USF.COMPS:C10:1,2017-05-02T05:05:00Z,27.1690,-82.9260,3.0,5.1,188.95,6.22,'1111122,1111122,1111122' 
COMPS,ioos:station:USF.COMPS:C10:1,2017-05-02T05:35:00Z,27.1690,-82.9260,3.0,4.68,214.3,5.92,'1111122,1111122,1111122' 
COMPS,ioos:station:USF.COMPS:C10:1,2017-05-02T06:05:00Z,27.1690,-82.9260,3.0,3.41,211.64,4.18,'1111122,1111122,1111122' 
COMPS,ioos:station:USF.COMPS:C10:1,2017-05-02T06:35:00Z,27.1690,-82.9260,3.0,2.4,212.88,3.08,'1111122,1111122,1111122' 
COMPS,ioos:station:USF.COMPS:C10:1,2017-05-02T07:05:00Z,27.1690,-82.9260,3.0,1.88,193.88,2.43,'1111122,1111122,1111122' 
COMPS,ioos:station:USF.COMPS:C10:1,2017-05-02T07:35:00Z,27.1690,-82.9260,3.0,2.07,194.69,2.74,'1111122,1111122,1111122' 
COMPS,ioos:station:USF.COMPS:C10:1,2017-05-02T08:05:00Z,27.1690,-82.9260,3.0,1.6,178.79,2.49,'1111122,1111122,1111122' 
COMPS,ioos:station:USF.COMPS:C10:1,2017-05-02T08:35:00Z,27.1690,-82.9260,3.0,0.89,204.21,1.44,'1111122,1111122,1111122' 
COMPS,ioos:station:USF.COMPS:C10:1,2017-05-02T09:05:00Z,27.1690,-82.9260,3.0,1.56,180.13,2.04,'1111122,1111122,1111122' 
COMPS,ioos:station:USF.COMPS:C10:1,2017-05-02T09:35:00Z,27.1690,-82.9260,3.0,2.33,173.76,2.97,'1111122,1111122,1111122' 
COMPS,ioos:station:USF.COMPS:C10:1,2017-05-02T10:05:00Z,27.1690,-82.9260,3.0,2.72,176.61,3.53,'1111122,1111122,1111122' 
COMPS,ioos:station:USF.COMPS:C10:1,2017-05-02T10:35:00Z,27.1690,-82.9260,3.0,2.98,175.95,3.67,'1111122,1111122,1111122' 
COMPS,ioos:station:USF.COMPS:C10:1,2017-05-02T11:05:00Z,27.1690,-82.9260,3.0,3.1,186.23,3.95,'1111122,1111122,1111122' 
COMPS,ioos:station:USF.COMPS:C10:1,2017-05-02T11:35:00Z,27.1690,-82.9260,3.0,4.48,164.55,5.53,'1111122,1111122,1111122' 
COMPS,ioos:station:USF.COMPS:C10:1,2017-05-02T12:05:00Z,27.1690,-82.9260,3.0,3.45,174.34,4.44,'1111122,1111122,1111122' 
COMPS,ioos:station:USF.COMPS:C10:1,2017-05-02T12:35:00Z,27.1690,-82.9260,3.0,3.48,165.93,4.31,'1111122,1111122,1111122' 
COMPS,ioos:station:USF.COMPS:C10:1,2017-05-02T13:05:00Z,27.1690,-82.9260,3.0,2.72,182.49,3.55,'1111122,1111122,1111122' 
COMPS,ioos:station:USF.COMPS:C10:1,2017-05-02T13:35:00Z,27.1690,-82.9260,3.0,1.94,208.04,2.5,'1111122,1111122,1111122' 
COMPS,ioos:station:USF.COMPS:C10:1,2017-05-02T14:05:00Z,27.1690,-82.9260,3.0,1.67,227.97,2.41,'1111122,1111122,1111122' 
COMPS,ioos:station:USF.COMPS:C10:1,2017-05-02T14:35:00Z,27.1690,-82.9260,3.0,1.66,242.18,2.41,'1111122,1111122,1111122' 
COMPS,ioos:station:USF.COMPS:C10:1,2017-05-02T15:05:00Z,27.1690,-82.9260,3.0,1.92,248.64,2.5,'1111122,1111122,1111122' 
COMPS,ioos:station:USF.COMPS:C10:1,2017-05-02T15:35:00Z,27.1690,-82.9260,3.0,2.25,239.99,2.96,'1111122,1111122,1111122' 
COMPS,ioos:station:USF.COMPS:C10:1,2017-05-02T16:05:00Z,27.1690,-82.9260,3.0,2.15,219.64,2.98,'1111122,1111122,1111122' 
COMPS,ioos:station:USF.COMPS:C10:1,2017-05-02T16:35:00Z,27.1690,-82.9260,3.0,1.58,197.95,2.4,'1111122,1111122,1111122' 
COMPS,ioos:station:USF.COMPS:C10:1,2017-05-02T17:05:00Z,27.1690,-82.9260,3.0,2.19,216.86,2.92,'1111122,1111122,1111122' 
COMPS,ioos:station:USF.COMPS:C10:1,2017-05-02T17:35:00Z,27.1690,-82.9260,3.0,2.58,211.96,3.33,'1111122,1111122,1111122' 
COMPS,ioos:station:USF.COMPS:C10:1,2017-05-02T21:05:00Z,27.1690,-82.9260,3.0,5.52,350.84,6.6,'1111122,1111122,1111122' 
COMPS,ioos:station:USF.COMPS:C10:1,2017-05-02T21:35:00Z,27.1690,-82.9260,3.0,4.46,1.15,5.64,'1111122,1111122,1111122' 
COMPS,ioos:station:USF.COMPS:C10:1,2017-05-02T22:05:00Z,27.1690,-82.9260,3.0,4.52,352.78,5.57,'1111122,1111122,1111122' 
COMPS,ioos:station:USF.COMPS:C10:1,2017-05-02T22:35:00Z,27.1690,-82.9260,3.0,4.5,347.64,5.42,'1111122,1111122,1111122' 
COMPS,ioos:station:USF.COMPS:C10:1,2017-05-03T00:05:00Z,27.1690,-82.9260,3.0,3.9,346.82,4.84,'1111122,1111122,1111122' 
COMPS,ioos:station:USF.COMPS:C10:1,2017-05-03T00:35:00Z,27.1690,-82.9260,3.0,4.86,344.39,6.29,'1111122,1111122,1111122' 
COMPS,ioos:station:USF.COMPS:C10:1,2017-05-03T01:05:00Z,27.1690,-82.9260,3.0,5.14,346.53,6.3,'1111122,1111122,1111122' 
COMPS,ioos:station:USF.COMPS:C10:1,2017-05-03T03:05:00Z,27.1690,-82.9260,3.0,5.32,95.11,6.58,'1111122,1111122,1111122' 
COMPS,ioos:station:USF.COMPS:C10:1,2017-05-03T03:35:00Z,27.1690,-82.9260,3.0,4.73,99.75,5.63,'1111122,1111122,1111122' 
COMPS,ioos:station:USF.COMPS:C10:1,2017-05-03T04:05:00Z,27.1690,-82.9260,3.0,3.95,112.86,5.31,'1111122,1111122,1111122' 
COMPS,ioos:station:USF.COMPS:C10:1,2017-05-03T04:35:00Z,27.1690,-82.9260,3.0,3.29,110.26,4.18,'1111122,1111122,1111122' 
COMPS,ioos:station:USF.COMPS:C10:1,2017-05-03T05:05:00Z,27.1690,-82.9260,3.0,3.3,99.63,4.18,'1111122,1111122,1111122' 
COMPS,ioos:station:USF.COMPS:C10:1,2017-05-03T05:35:00Z,27.1690,-82.9260,3.0,2.74,106.37,3.46,'1111122,1111122,1111122' 
COMPS,ioos:station:USF.COMPS:C10:1,2017-05-03T06:05:00Z,27.1690,-82.9260,3.0,3.04,111.48,4.17,'1111122,1111122,1111122' 
COMPS,ioos:station:USF.COMPS:C10:1,2017-05-03T06:35:00Z,27.1690,-82.9260,3.0,2.96,111.8,3.94,'1111122,1111122,1111122' 
COMPS,ioos:station:USF.COMPS:C10:1,2017-05-03T07:05:00Z,27.1690,-82.9260,3.0,3.64,84.82,4.5,'1111122,1111122,1111122' 
COMPS,ioos:station:USF.COMPS:C10:1,2017-05-03T07:35:00Z,27.1690,-82.9260,3.0,3.6,74.34,4.43,'1111122,1111122,1111122' 
COMPS,ioos:station:USF.COMPS:C10:1,2017-05-03T08:05:00Z,27.1690,-82.9260,3.0,3.53,77.66,4.35,'1111122,1111122,1111122' 
COMPS,ioos:station:USF.COMPS:C10:1,2017-05-03T08:35:00Z,27.1690,-82.9260,3.0,3.08,77.83,3.94,'1111122,1111122,1111122' 
COMPS,ioos:station:USF.COMPS:C10:1,2017-05-03T09:05:00Z,27.1690,-82.9260,3.0,3.33,71.16,4.24,'1111122,1111122,1111122' 
COMPS,ioos:station:USF.COMPS:C10:1,2017-05-03T09:35:00Z,27.1690,-82.9260,3.0,3.69,66.52,4.81,'1111122,1111122,1111122' 
COMPS,ioos:station:USF.COMPS:C10:1,2017-05-03T10:05:00Z,27.1690,-82.9260,3.0,4.11,60.56,4.96,'1111122,1111122,1111122' 
COMPS,ioos:station:USF.COMPS:C10:1,2017-05-03T10:35:00Z,27.1690,-82.9260,3.0,3.32,69.67,4.09,'1111122,1111122,1111122' 
COMPS,ioos:station:USF.COMPS:C10:1,2017-05-03T11:05:00Z,27.1690,-82.9260,3.0,3.44,65.17,4.1,'1111122,1111122,1111122' 
COMPS,ioos:station:USF.COMPS:C10:1,2017-05-03T11:35:00Z,27.1690,-82.9260,3.0,3.15,56.07,4.23,'1111122,1111122,1111122' 
COMPS,ioos:station:USF.COMPS:C10:1,2017-05-03T12:05:00Z,27.1690,-82.9260,3.0,3.87,63.14,4.87,'1111122,1111122,1111122' 
COMPS,ioos:station:USF.COMPS:C10:1,2017-05-03T12:35:00Z,27.1690,-82.9260,3.0,3.56,71.88,4.73,'1111122,1111122,1111122' 
COMPS,ioos:station:USF.COMPS:C10:1,2017-05-03T13:05:00Z,27.1690,-82.9260,3.0,2.91,82.22,3.77,'1111122,1111122,1111122' 
COMPS,ioos:station:USF.COMPS:C10:1,2017-05-03T13:35:00Z,27.1690,-82.9260,3.0,3.07,93.45,3.94,'1111122,1111122,1111122' 
COMPS,ioos:station:USF.COMPS:C10:1,2017-05-03T14:05:00Z,27.1690,-82.9260,3.0,3.7,92.87,4.7,'1111122,1111122,1111122' 
COMPS,ioos:station:USF.COMPS:C10:1,2017-05-03T14:35:00Z,27.1690,-82.9260,3.0,4.21,102.95,4.86,'1111122,1111122,1111122' 
COMPS,ioos:station:USF.COMPS:C10:1,2017-05-03T15:05:00Z,27.1690,-82.9260,3.0,4.23,110.52,5.2,'1111122,1111122,1111122' 
COMPS,ioos:station:USF.COMPS:C10:1,2017-05-03T15:35:00Z,27.1690,-82.9260,3.0,4.11,122.86,4.86,'1111122,1111122,1111122' 
COMPS,ioos:station:USF.COMPS:C10:1,2017-05-03T16:05:00Z,27.1690,-82.9260,3.0,4.31,127.57,5.35,'1111122,1111122,1111122' 
COMPS,ioos:station:USF.COMPS:C10:1,2017-05-03T16:35:00Z,27.1690,-82.9260,3.0,4.03,139.59,5.01,'1111122,1111122,1111122' 
COMPS,ioos:station:USF.COMPS:C10:1,2017-05-03T17:05:00Z,27.1690,-82.9260,3.0,3.45,153.66,4.17,'1111122,1111122,1111122' 
COMPS,ioos:station:USF.COMPS:C10:1,2017-05-03T17:35:00Z,27.1690,-82.9260,3.0,3.52,163.73,4.47,'1111122,1111122,1111122' 
COMPS,ioos:station:USF.COMPS:C10:1,2017-05-03T18:05:00Z,27.1690,-82.9260,3.0,4.0,180.07,4.54,'1111122,1111122,1111122' 
COMPS,ioos:station:USF.COMPS:C10:1,2017-05-03T18:35:00Z,27.1690,-82.9260,3.0,4.46,181.12,5.37,'1111122,1111122,1111122' 
COMPS,ioos:station:USF.COMPS:C10:1,2017-05-03T19:05:00Z,27.1690,-82.9260,3.0,5.0,190.23,6.11,'1111122,1111122,1111122' 
COMPS,ioos:station:USF.COMPS:C10:1,2017-05-03T19:35:00Z,27.1690,-82.9260,3.0,5.01,200.31,5.85,'1111122,1111122,1111122' 
COMPS,ioos:station:USF.COMPS:C10:1,2017-05-03T20:05:00Z,27.1690,-82.9260,3.0,5.12,214.07,5.81,'1111122,1111122,1111122' 
COMPS,ioos:station:USF.COMPS:C10:1,2017-05-03T20:35:00Z,27.1690,-82.9260,3.0,4.86,228.29,5.77,'1111122,1111122,1111122' 
COMPS,ioos:station:USF.COMPS:C10:1,2017-05-03T21:05:00Z,27.1690,-82.9260,3.0,4.79,240.83,5.46,'1111122,1111122,1111122' 
COMPS,ioos:station:USF.COMPS:C10:1,2017-05-03T21:35:00Z,27.1690,-82.9260,3.0,5.18,236.61,5.97,'1111122,1111122,1111122' 
COMPS,ioos:station:USF.COMPS:C10:1,2017-05-03T22:05:00Z,27.1690,-82.9260,3.0,5.44,235.34,6.22,'1111122,1111122,1111122' 
COMPS,ioos:station:USF.COMPS:C10:1,2017-05-03T22:35:00Z,27.1690,-82.9260,3.0,4.9,242.96,5.83,'1111122,1111122,1111122' 
COMPS,ioos:station:USF.COMPS:C10:1,2017-05-03T23:05:00Z,27.1690,-82.9260,3.0,4.1,243.44,5.44,'1111122,1111122,1111122' 
COMPS,ioos:station:USF.COMPS:C10:1,2017-05-03T23:35:00Z,27.1690,-82.9260,3.0,2.41,235.44,3.68,'1111122,1111122,1111122' 
COMPS,ioos:station:USF.COMPS:C10:1,2017-05-04T00:05:00Z,27.1690,-82.9260,3.0,1.91,238.0,2.72,'1111122,1111122,1111122' 
COMPS,ioos:station:USF.COMPS:C10:1,2017-05-04T00:35:00Z,27.1690,-82.9260,3.0,0.57,114.55,1.36,'1111122,1111122,1111122' 
COMPS,ioos:station:USF.COMPS:C10:1,2017-05-04T01:05:00Z,27.1690,-82.9260,3.0,1.76,81.38,2.22,'1111122,1111122,1111122' 
COMPS,ioos:station:USF.COMPS:C10:1,2017-05-04T01:35:00Z,27.1690,-82.9260,3.0,1.24,128.99,1.74,'1111122,1111122,1111122' 
COMPS,ioos:station:USF.COMPS:C10:1,2017-05-04T02:05:00Z,27.1690,-82.9260,3.0,1.54,122.27,2.1,'1111122,1111122,1111122' 
COMPS,ioos:station:USF.COMPS:C10:1,2017-05-04T02:35:00Z,27.1690,-82.9260,3.0,1.58,125.1,1.95,'1111122,1111122,1111122' 
COMPS,ioos:station:USF.COMPS:C10:1,2017-05-04T03:05:00Z,27.1690,-82.9260,3.0,3.28,100.65,5.66,'1111122,1111122,1111122' 
COMPS,ioos:station:USF.COMPS:C10:1,2017-05-04T03:35:00Z,27.1690,-82.9260,3.0,4.88,100.64,6.29,'1111122,1111122,1111122' 
COMPS,ioos:station:USF.COMPS:C10:1,2017-05-04T04:05:00Z,27.1690,-82.9260,3.0,5.23,112.06,6.37,'1111122,1111122,1111122' 
COMPS,ioos:station:USF.COMPS:C10:1,2017-05-04T04:35:00Z,27.1690,-82.9260,3.0,5.35,108.28,6.61,'1111122,1111122,1111122' 
COMPS,ioos:station:USF.COMPS:C10:1,2017-05-04T05:05:00Z,27.1690,-82.9260,3.0,5.64,112.59,7.41,'1111122,1111122,1111122' 
COMPS,ioos:station:USF.COMPS:C10:1,2017-05-04T05:35:00Z,27.1690,-82.9260,3.0,7.1,114.31,8.39,'1111122,1111122,1111122' 
COMPS,ioos:station:USF.COMPS:C10:1,2017-05-04T06:05:00Z,27.1690,-82.9260,3.0,7.27,122.37,8.45,'1111122,1111122,1111122' 
COMPS,ioos:station:USF.COMPS:C10:1,2017-05-04T06:35:00Z,27.1690,-82.9260,3.0,8.38,129.63,10.05,'1111122,1111122,1111122' 
COMPS,ioos:station:USF.COMPS:C10:1,2017-05-04T07:05:00Z,27.1690,-82.9260,3.0,7.73,126.79,9.47,'1111122,1111122,1111122' 
COMPS,ioos:station:USF.COMPS:C10:1,2017-05-04T07:35:00Z,27.1690,-82.9260,3.0,8.51,134.28,10.27,'1111122,1111122,1111122' 
COMPS,ioos:station:USF.COMPS:C10:1,2017-05-04T08:05:00Z,27.1690,-82.9260,3.0,9.45,136.38,11.5,'1111122,1111122,1111122' 
COMPS,ioos:station:USF.COMPS:C10:1,2017-05-04T08:35:00Z,27.1690,-82.9260,3.0,8.98,139.65,11.03,'1111122,1111122,1111122' 
COMPS,ioos:station:USF.COMPS:C10:1,2017-05-04T09:05:00Z,27.1690,-82.9260,3.0,9.0,160.62,10.62,'1111122,1111122,1111122' 
COMPS,ioos:station:USF.COMPS:C10:1,2017-05-04T09:35:00Z,27.1690,-82.9260,3.0,8.48,157.48,9.9,'1111122,1111122,1111122' 
COMPS,ioos:station:USF.COMPS:C10:1,2017-05-04T10:05:00Z,27.1690,-82.9260,3.0,8.37,153.64,10.08,'1111122,1111122,1111122' 
COMPS,ioos:station:USF.COMPS:C10:1,2017-05-04T10:35:00Z,27.1690,-82.9260,3.0,8.24,149.55,10.36,'1111122,1111122,1111122' 
COMPS,ioos:station:USF.COMPS:C10:1,2017-05-04T11:05:00Z,27.1690,-82.9260,3.0,9.21,149.87,10.99,'1111122,1111122,1111122' 
COMPS,ioos:station:USF.COMPS:C10:1,2017-05-04T11:35:00Z,27.1690,-82.9260,3.0,8.42,156.02,10.63,'1111122,1111122,1111122' 
COMPS,ioos:station:USF.COMPS:C10:1,2017-05-04T12:05:00Z,27.1690,-82.9260,3.0,8.91,153.89,10.98,'1111122,1111122,1111122' 
COMPS,ioos:station:USF.COMPS:C10:1,2017-05-04T12:35:00Z,27.1690,-82.9260,3.0,7.78,159.13,9.64,'1111122,1111122,1111122' 
COMPS,ioos:station:USF.COMPS:C10:1,2017-05-04T13:05:00Z,27.1690,-82.9260,3.0,8.19,159.94,10.12,'1111122,1111122,1111122' 
COMPS,ioos:station:USF.COMPS:C10:1,2017-05-04T13:35:00Z,27.1690,-82.9260,3.0,7.42,163.32,9.38,'1111122,1111122,1111122' 
COMPS,ioos:station:USF.COMPS:C10:1,2017-05-04T14:05:00Z,27.1690,-82.9260,3.0,7.28,158.39,8.92,'1111122,1111122,1111122' 
COMPS,ioos:station:USF.COMPS:C10:1,2017-05-04T14:35:00Z,27.1690,-82.9260,3.0,7.65,160.37,9.65,'1111122,1111122,1111122' 
COMPS,ioos:station:USF.COMPS:C10:1,2017-05-04T15:05:00Z,27.1690,-82.9260,3.0,7.04,164.91,8.14,'1111122,1111122,1111122' 
COMPS,ioos:station:USF.COMPS:C10:1,2017-05-04T15:35:00Z,27.1690,-82.9260,3.0,6.36,166.12,7.84,'1111122,1111122,1111122' 
COMPS,ioos:station:USF.COMPS:C10:1,2017-05-04T16:05:00Z,27.1690,-82.9260,3.0,5.76,171.51,6.97,'1111122,1111122,1111122' 
COMPS,ioos:station:USF.COMPS:C10:1,2017-05-04T16:35:00Z,27.1690,-82.9260,3.0,6.62,186.47,8.16,'1111122,1111122,1111122' 
COMPS,ioos:station:USF.COMPS:C10:1,2017-05-04T17:05:00Z,27.1690,-82.9260,3.0,8.08,185.62,9.64,'1111122,1111122,1111122' 
COMPS,ioos:station:USF.COMPS:C10:1,2017-05-04T17:35:00Z,27.1690,-82.9260,3.0,7.05,181.06,8.87,'1111122,1111122,1111122' 
COMPS,ioos:station:USF.COMPS:C10:1,2017-05-04T18:05:00Z,27.1690,-82.9260,3.0,6.99,180.8,8.65,'1111122,1111122,1111122' 
COMPS,ioos:station:USF.COMPS:C10:1,2017-05-04T18:35:00Z,27.1690,-82.9260,3.0,7.6,192.33,9.36,'1111122,1111122,1111122' 
COMPS,ioos:station:USF.COMPS:C10:1,2017-05-04T19:05:00Z,27.1690,-82.9260,3.0,7.24,192.16,9.05,'1111122,1111122,1111122' 
COMPS,ioos:station:USF.COMPS:C10:1,2017-05-04T19:35:00Z,27.1690,-82.9260,3.0,7.42,201.66,9.32,'1111122,1111122,1111122' 
COMPS,ioos:station:USF.COMPS:C10:1,2017-05-04T20:05:00Z,27.1690,-82.9260,3.0,7.42,191.2,8.94,'1111122,1111122,1111122' 
COMPS,ioos:station:USF.COMPS:C10:1,2017-05-04T20:35:00Z,27.1690,-82.9260,3.0,7.25,198.69,8.6,'1111122,1111122,1111122' 
COMPS,ioos:station:USF.COMPS:C10:1,2017-05-04T21:05:00Z,27.1690,-82.9260,3.0,6.65,206.61,8.54,'1111122,1111122,1111122' 
COMPS,ioos:station:USF.COMPS:C10:1,2017-05-04T21:35:00Z,27.1690,-82.9260,3.0,10.26,279.12,14.06,'1111122,1111122,1111122' 
COMPS,ioos:station:USF.COMPS:C10:1,2017-05-04T22:05:00Z,27.1690,-82.9260,3.0,8.19,287.04,13.45,'1111122,1111122,1111122' 
COMPS,ioos:station:USF.COMPS:C10:1,2017-05-04T22:35:00Z,27.1690,-82.9260,3.0,3.04,305.49,4.9,'1111122,1111122,1111122' 
COMPS,ioos:station:USF.COMPS:C10:1,2017-05-04T23:05:00Z,27.1690,-82.9260,3.0,1.28,297.12,2.73,'1111122,1111122,1111122' 
COMPS,ioos:station:USF.COMPS:C10:1,2017-05-04T23:35:00Z,27.1690,-82.9260,3.0,1.26,226.12,2.26,'1111122,1111122,1111122' 
COMPS,ioos:station:USF.COMPS:C10:1,2017-05-05T00:05:00Z,27.1690,-82.9260,3.0,4.06,171.96,5.3,'1111122,1111122,1111122' 
COMPS,ioos:station:USF.COMPS:C10:1,2017-05-05T00:35:00Z,27.1690,-82.9260,3.0,5.97,159.59,7.3,'1111122,1111122,1111122' 
COMPS,ioos:station:USF.COMPS:C10:1,2017-05-05T01:05:00Z,27.1690,-82.9260,3.0,6.91,169.04,8.29,'1111122,1111122,1111122' 
COMPS,ioos:station:USF.COMPS:C10:1,2017-05-05T01:35:00Z,27.1690,-82.9260,3.0,8.26,175.89,9.82,'1111122,1111122,1111122' 
COMPS,ioos:station:USF.COMPS:C10:1,2017-05-05T02:05:00Z,27.1690,-82.9260,3.0,6.91,193.75,9.11,'1111122,1111122,1111122' 
COMPS,ioos:station:USF.COMPS:C10:1,2017-05-05T02:35:00Z,27.1690,-82.9260,3.0,6.29,201.19,7.81,'1111122,1111122,1111122' 
COMPS,ioos:station:USF.COMPS:C10:1,2017-05-05T03:05:00Z,27.1690,-82.9260,3.0,6.15,190.2,7.67,'1111122,1111122,1111122' 
COMPS,ioos:station:USF.COMPS:C10:1,2017-05-05T03:35:00Z,27.1690,-82.9260,3.0,5.61,195.59,7.02,'1111122,1111122,1111122' 
COMPS,ioos:station:USF.COMPS:C10:1,2017-05-05T04:05:00Z,27.1690,-82.9260,3.0,5.76,199.68,7.52,'1111122,1111122,1111122' 
COMPS,ioos:station:USF.COMPS:C10:1,2017-05-05T04:35:00Z,27.1690,-82.9260,3.0,5.92,198.04,7.31,'1111122,1111122,1111122' 
COMPS,ioos:station:USF.COMPS:C10:1,2017-05-05T05:05:00Z,27.1690,-82.9260,3.0,5.48,208.82,6.68,'1111122,1111122,1111122' 
COMPS,ioos:station:USF.COMPS:C10:1,2017-05-05T05:35:00Z,27.1690,-82.9260,3.0,6.26,217.51,7.56,'1111122,1111122,1111122' 
COMPS,ioos:station:USF.COMPS:C10:1,2017-05-05T06:05:00Z,27.1690,-82.9260,3.0,5.92,208.91,7.27,'1111122,1111122,1111122' 
COMPS,ioos:station:USF.COMPS:C10:1,2017-05-05T06:35:00Z,27.1690,-82.9260,3.0,5.8,216.27,7.25,'1111122,1111122,1111122' 
COMPS,ioos:station:USF.COMPS:C10:1,2017-05-05T07:05:00Z,27.1690,-82.9260,3.0,7.56,210.55,9.4,'1111122,1111122,1111122' 
COMPS,ioos:station:USF.COMPS:C10:1,2017-05-05T07:35:00Z,27.1690,-82.9260,3.0,5.98,241.31,7.68,'1111122,1111122,1111122' 